K4HG-2 Weather Reports


Display with metric or nautical units.
time (UTC)temp
F
wind
direction
speed
MPH
gust
MPH
rain 1hr
in
rain 24hr
in
rain mn
in
humidity
%
barometer
mb
20210616075916 82 112 0.0 0.0 0.00 0.00 0.05 76 1013.1
20210616075716 82 112 0.0 0.0 0.00 0.00 0.05 76 1013.2
20210616075615 82 112 0.0 0.0 0.00 0.00 0.05 76 1013.2
20210616075516 82 112 0.0 0.0 0.00 0.00 0.05 76 1013.2
20210616075415 82 112 0.0 0.0 0.00 0.00 0.05 76 1013.2
20210616075016 82 112 0.0 0.0 0.00 0.00 0.05 76 1013.1
20210616074915 81 112 0.0 0.0 0.00 0.00 0.05 76 1013.2
20210616074717 82 112 0.0 0.0 0.00 0.00 0.05 76 1013.2
20210616074615 82 112 0.0 0.0 0.00 0.00 0.05 76 1013.2
20210616074516 81 112 0.0 0.0 0.00 0.00 0.05 76 1013.2
20210616074415 81 112 0.0 0.0 0.00 0.00 0.05 75 1013.3
20210616074316 81 112 0.0 0.0 0.00 0.00 0.05 75 1013.3
20210616074216 82 112 0.0 0.0 0.00 0.00 0.05 75 1013.3
20210616074116 81 112 0.0 0.0 0.00 0.00 0.05 75 1013.2
20210616074016 81 112 0.0 0.0 0.00 0.00 0.05 75 1013.2
20210616073915 81 112 0.0 0.0 0.00 0.00 0.05 75 1013.1
20210616073715 81 112 0.0 0.0 0.00 0.00 0.05 75 1013.0
20210616073516 82 112 0.0 0.0 0.00 0.00 0.05 75 1013.0
20210616073416 81 112 0.0 0.0 0.00 0.00 0.05 74 1013.0
20210616073316 81 112 0.0 0.0 0.00 0.00 0.05 74 1013.1
20210616073215 81 112 0.0 0.0 0.00 0.00 0.05 74 1013.0
20210616073116 81 112 0.0 0.0 0.00 0.00 0.05 74 1013.0
20210616072916 81 112 0.0 0.0 0.00 0.00 0.05 75 1013.1
20210616072816 81 112 0.0 0.0 0.00 0.00 0.05 75 1013.0
20210616072516 81 112 0.0 0.0 0.00 0.00 0.05 76 1013.1
20210616072315 81 112 0.0 0.0 0.00 0.00 0.05 75 1013.2
20210616072116 81 112 0.0 0.0 0.00 0.00 0.05 74 1013.1
20210616071615 81 112 0.0 0.0 0.00 0.00 0.04 72 1013.4
20210616071316 82 112 0.0 10.0 0.00 0.00 0.04 70 1013.4
20210616071215 81 112 0.0 10.0 0.00 0.00 0.04 68 1013.5
20210616071116 82 112 0.0 10.0 0.00 0.00 0.04 68 1013.5
20210616071016 82 112 0.0 10.0 0.00 0.00 0.04 67 1013.6
20210616070416 82 132 11.0 4.0 0.00 0.00 0.02 65 1013.9
20210616070316 83 142 15.0 4.0 0.00 0.00 0.01 76 1013.8
20210616065716 83 50 0.0 7.0 0.00 0.00 0.00 76 1013.7
20210616065416 83 37 0.0 0.0 0.00 0.00 0.00 77 1013.8
20210616064716 83 28 0.0 5.0 0.00 0.00 0.00 77 1013.9
20210616064415 83 28 0.0 0.0 0.00 0.00 0.00 77 1013.7
20210616063916 83 30 0.0 0.0 0.00 0.00 0.00 76 1013.7
20210616063515 83 30 0.0 0.0 0.00 0.00 0.00 76 1013.9
20210616063315 83 30 0.0 0.0 0.00 0.00 0.00 76 1014.0
20210616063115 83 30 0.0 0.0 0.00 0.00 0.00 76 1014.1
20210616062316 83 30 0.0 7.0 0.00 0.00 0.00 76 1014.0
20210616062216 83 30 0.0 7.0 0.00 0.00 0.00 76 1014.1
20210616062116 83 30 0.0 7.0 0.00 0.00 0.00 76 1014.1
20210616061915 83 46 0.0 0.0 0.00 0.00 0.00 76 1014.1
20210616061715 83 15 0.0 0.0 0.00 0.00 0.00 76 1014.1
20210616061516 83 15 0.0 0.0 0.00 0.00 0.00 76 1014.1
20210616061115 83 15 0.0 0.0 0.00 0.00 0.00 76 1014.2
20210616061016 83 15 0.0 0.0 0.00 0.00 0.00 76 1014.2
20210616060915 83 15 0.0 0.0 0.00 0.00 0.00 76 1014.2
20210616060816 83 15 0.0 0.0 0.00 0.00 0.00 76 1014.2
20210616060715 83 15 0.0 0.0 0.00 0.00 0.00 76 1014.2
20210616060616 83 15 0.0 0.0 0.00 0.00 0.00 76 1014.2
20210616060415 83 15 0.0 0.0 0.00 0.00 0.00 76 1014.3
20210616060316 83 15 0.0 0.0 0.00 0.00 0.00 75 1014.3
20210616055816 83 15 0.0 0.0 0.00 0.00 0.00 75 1014.3
20210616055616 83 15 0.0 0.0 0.00 0.00 0.00 75 1014.4
20210616055416 82 15 0.0 0.0 0.00 0.00 0.00 75 1014.4
20210616055315 83 15 0.0 0.0 0.00 0.00 0.00 75 1014.4
20210616055116 83 15 0.0 0.0 0.00 0.00 0.00 75 1014.4
20210616054715 83 15 0.0 0.0 0.00 0.00 0.00 75 1014.4
20210616054616 83 15 0.0 0.0 0.00 0.00 0.00 75 1014.5
20210616054315 83 15 0.0 2.0 0.00 0.00 0.00 75 1014.5
20210616054216 82 15 0.0 2.0 0.00 0.00 0.00 75 1014.5
20210616053915 83 15 0.0 8.0 0.00 0.00 0.00 75 1014.5
20210616053616 83 39 0.0 8.0 0.00 0.00 0.00 75 1014.6
20210616053517 82 39 0.0 8.0 0.00 0.00 0.00 75 1014.6
20210616053316 83 39 0.0 0.0 0.00 0.00 0.00 75 1014.6
20210616053216 83 39 3.0 0.0 0.00 0.00 0.00 75 1014.7
20210616052415 83 28 0.0 0.0 0.00 0.00 0.00 75 1014.7
20210616052316 83 28 0.0 0.0 0.00 0.00 0.00 75 1014.7
20210616052216 82 28 0.0 0.0 0.00 0.00 0.00 75 1014.7
20210616051716 83 28 0.0 0.0 0.00 0.00 0.00 75 1014.8
20210616051415 82 28 0.0 6.0 0.00 0.00 0.00 74 1014.8
20210616051317 83 28 0.0 6.0 0.00 0.00 0.00 74 1014.8
20210616051115 82 28 0.0 6.0 0.00 0.00 0.00 74 1014.8
20210616050916 82 28 0.0 7.0 0.00 0.00 0.00 74 1014.8
20210616050816 83 28 0.0 7.0 0.00 0.00 0.00 74 1014.7
20210616050616 83 40 0.0 7.0 0.00 0.00 0.00 74 1014.8
20210616050516 82 40 0.0 7.0 0.00 0.00 0.00 74 1014.8
20210616050316 83 59 4.0 10.0 0.00 0.00 0.00 75 1014.8
20210616050215 82 49 0.0 10.0 0.00 0.00 0.00 75 1014.9
20210616050116 82 49 0.0 10.0 0.00 0.00 0.00 75 1015.0
20210616045915 82 29 0.0 10.0 0.00 0.00 0.00 75 1015.0
20210616045816 82 29 0.0 10.0 0.00 0.00 0.00 75 1015.0
20210616045716 82 73 2.0 10.0 0.00 0.00 0.00 75 1014.9
20210616045615 83 33 5.0 10.0 0.00 0.00 0.00 76 1014.9
20210616045315 82 49 7.0 9.0 0.00 0.00 0.00 76 1014.9
20210616045115 82 52 1.0 9.0 0.00 0.00 0.00 76 1014.9
20210616045016 82 64 5.0 9.0 0.00 0.00 0.00 76 1014.9
20210616044715 82 45 7.0 10.0 0.00 0.00 0.00 76 1014.9
20210616044515 83 63 8.0 10.0 0.00 0.00 0.00 76 1014.9
20210616044416 83 22 4.0 11.0 0.00 0.00 0.00 76 1014.9
20210616043916 83 43 3.0 13.0 0.00 0.00 0.00 76 1014.9
20210616043515 83 32 8.0 13.0 0.00 0.00 0.00 76 1015.0
20210616043417 83 49 12.0 11.0 0.00 0.00 0.00 76 1015.0
20210616043315 83 73 3.0 11.0 0.00 0.00 0.00 76 1015.1
20210616043016 83 59 4.0 11.0 0.00 0.00 0.00 76 1015.1
20210616042915 83 22 5.0 10.0 0.00 0.00 0.00 76 1015.1
20210616042716 83 28 6.0 10.0 0.00 0.00 0.00 76 1015.1
20210616042416 83 29 6.0 11.0 0.00 0.00 0.00 76 1015.2
20210616042317 83 64 3.0 11.0 0.00 0.00 0.00 76 1015.2
20210616042215 83 40 5.0 11.0 0.00 0.00 0.00 76 1015.3
20210616042116 83 53 7.0 11.0 0.00 0.00 0.00 76 1015.3
20210616041815 83 52 3.0 7.0 0.00 0.00 0.00 75 1015.3
20210616041615 83 9 5.0 7.0 0.00 0.00 0.00 75 1015.4
20210616041515 83 37 9.0 7.0 0.00 0.00 0.00 72 1015.4
20210616041316 83 23 0.0 0.0 0.00 0.00 0.00 71 1015.4
20210616041115 82 23 0.0 0.0 0.00 0.00 0.00 70 1015.5
20210616040915 82 23 0.0 0.0 0.00 0.00 0.00 70 1015.5
20210616040716 82 23 0.0 0.0 0.00 0.00 0.00 69 1015.5
20210616040516 82 23 0.0 0.0 0.00 0.00 0.00 69 1015.5
20210616040315 82 23 0.0 0.0 0.00 0.00 0.00 69 1015.6
20210616040216 82 23 0.0 0.0 0.00 0.00 0.00 69 1015.6
20210616035916 82 23 0.0 0.0 0.00 0.00 0.00 69 1015.6
20210616035616 82 23 0.0 0.0 0.00 0.00 0.00 70 1015.6
20210616035415 82 23 0.0 0.0 0.00 0.00 0.00 70 1015.6
20210616035016 82 23 0.0 0.0 0.00 0.00 0.00 70 1015.5
20210616034916 82 23 0.0 0.0 0.00 0.00 0.00 70 1015.5
20210616034517 83 23 0.0 0.0 0.00 0.00 0.00 70 1015.6
20210616034116 83 23 0.0 0.0 0.00 0.00 0.00 70 1015.7
20210616033917 82 23 0.0 0.0 0.00 0.00 0.00 70 1015.7
20210616033716 82 23 0.0 0.0 0.00 0.00 0.00 70 1015.7
20210616033516 82 23 0.0 0.0 0.00 0.00 0.00 70 1015.8
20210616033416 82 23 0.0 3.0 0.00 0.00 0.00 70 1015.8
20210616033315 82 23 0.0 3.0 0.00 0.00 0.00 70 1015.8
20210616033217 82 23 0.0 3.0 0.00 0.00 0.00 69 1015.8
20210616033016 82 23 0.0 3.0 0.00 0.00 0.00 69 1015.8
20210616032916 82 23 0.0 9.0 0.00 0.00 0.00 69 1015.8
20210616032815 82 23 0.0 9.0 0.00 0.00 0.00 69 1015.8
20210616032716 82 74 0.0 9.0 0.00 0.00 0.00 69 1015.7
20210616032615 82 74 0.0 9.0 0.00 0.00 0.00 69 1015.7
20210616032517 82 74 0.0 9.0 0.00 0.00 0.00 69 1015.7
20210616032316 82 26 1.0 7.0 0.00 0.00 0.00 69 1015.7
20210616032217 82 25 5.0 7.0 0.00 0.00 0.00 69 1015.7
20210616031716 82 37 3.0 6.0 0.00 0.00 0.00 69 1015.8
20210616031616 82 4 7.0 6.0 0.00 0.00 0.00 69 1015.8
20210616031216 82 338 0.0 8.0 0.00 0.00 0.00 69 1015.8
20210616030915 82 18 4.0 9.0 0.00 0.00 0.00 69 1015.8
20210616030816 82 49 0.0 9.0 0.00 0.00 0.00 69 1015.8
20210616030716 83 49 0.0 9.0 0.00 0.00 0.00 69 1015.8
20210616030515 83 49 0.0 9.0 0.00 0.00 0.00 69 1015.7
20210616030416 83 358 3.0 0.0 0.00 0.00 0.00 69 1015.8
20210616030216 83 29 0.0 0.0 0.00 0.00 0.00 69 1015.8
20210616030115 83 29 0.0 0.0 0.00 0.00 0.00 69 1015.7
20210616030016 83 29 0.0 0.0 0.00 0.00 0.00 69 1015.7
20210616025915 83 29 0.0 0.0 0.00 0.00 0.00 68 1015.7
20210616025416 83 29 0.0 6.0 0.00 0.00 0.00 68 1015.7
20210616025117 83 29 0.0 6.0 0.00 0.00 0.00 68 1015.8
20210616025015 83 29 0.0 6.0 0.00 0.00 0.00 68 1015.7
20210616024916 83 35 3.0 0.0 0.00 0.00 0.00 68 1015.8
20210616024816 83 261 0.0 0.0 0.00 0.00 0.00 68 1015.8
20210616024715 83 261 0.0 0.0 0.00 0.00 0.00 68 1015.7
20210616024515 83 261 0.0 0.0 0.00 0.00 0.00 68 1015.7
20210616024316 83 261 0.0 4.0 0.00 0.00 0.00 68 1015.8
20210616024116 83 261 0.0 4.0 0.00 0.00 0.00 68 1015.8
20210616023917 83 261 0.0 4.0 0.00 0.00 0.00 68 1015.7
20210616023815 83 285 0.0 4.0 0.00 0.00 0.00 67 1015.7
20210616023716 83 264 0.0 4.0 0.00 0.00 0.00 67 1015.7
20210616023516 83 350 0.0 4.0 0.00 0.00 0.00 68 1015.7
20210616023416 83 350 0.0 7.0 0.00 0.00 0.00 68 1015.6
20210616023115 83 12 0.0 7.0 0.00 0.00 0.00 67 1015.5
20210616023017 83 12 0.0 7.0 0.00 0.00 0.00 67 1015.5
20210616022815 83 274 0.0 6.0 0.00 0.00 0.00 67 1015.5
20210616022717 83 9 2.0 6.0 0.00 0.00 0.00 67 1015.4
20210616022515 83 333 0.0 6.0 0.00 0.00 0.00 67 1015.4
20210616022416 84 333 0.0 6.0 0.00 0.00 0.00 67 1015.4
20210616022316 83 333 0.0 6.0 0.00 0.00 0.00 67 1015.4
20210616022115 83 333 0.0 6.0 0.00 0.00 0.00 67 1015.4
20210616021815 84 203 0.0 5.0 0.00 0.00 0.00 67 1015.4
20210616021716 84 333 0.0 5.0 0.00 0.00 0.00 67 1015.5
20210616021215 83 336 0.0 6.0 0.00 0.00 0.00 67 1015.6
20210616021116 84 336 0.0 6.0 0.00 0.00 0.00 66 1015.6
20210616021016 84 336 0.0 6.0 0.00 0.00 0.00 66 1015.6
20210616020815 84 336 0.0 7.0 0.00 0.00 0.00 66 1015.6
20210616020716 84 336 0.0 7.0 0.00 0.00 0.00 66 1015.5
20210616020516 84 0 0.0 7.0 0.00 0.00 0.00 66 1015.5
20210616020416 84 306 2.0 0.0 0.00 0.00 0.00 66 1015.5
20210616020315 84 358 0.0 0.0 0.00 0.00 0.00 66 1015.5
20210616020216 84 358 0.0 0.0 0.00 0.00 0.00 66 1015.4
20210616020115 84 358 0.0 0.0 0.00 0.00 0.00 66 1015.4
20210616020016 84 358 0.0 0.0 0.00 0.00 0.00 66 1015.4
20210616015816 84 358 0.0 0.0 0.00 0.00 0.00 66 1015.4
20210616015417 84 358 0.0 0.0 0.00 0.00 0.00 66 1015.3
20210616015315 84 358 0.0 0.0 0.00 0.00 0.00 66 1015.3
20210616015015 84 358 0.0 0.0 0.00 0.00 0.00 66 1015.3
20210616014916 84 358 0.0 0.0 0.00 0.00 0.00 65 1015.3
20210616014516 84 358 0.0 0.0 0.00 0.00 0.00 65 1015.3
20210616014415 84 358 0.0 0.0 0.00 0.00 0.00 66 1015.3
20210616014317 84 358 0.0 0.0 0.00 0.00 0.00 66 1015.3
20210616014216 84 358 0.0 0.0 0.00 0.00 0.00 66 1015.4
20210616014115 84 358 0.0 0.0 0.00 0.00 0.00 66 1015.4
20210616014016 85 358 0.0 0.0 0.00 0.00 0.00 66 1015.4
20210616013216 85 358 0.0 4.0 0.00 0.00 0.00 67 1015.4
20210616012917 85 337 0.0 0.0 0.00 0.00 0.00 68 1015.4
20210616012816 85 337 0.0 0.0 0.00 0.00 0.00 68 1015.4
20210616012715 85 286 0.0 0.0 0.00 0.00 0.00 68 1015.3
20210616011816 85 35 0.0 0.0 0.00 0.00 0.00 69 1015.3
20210616011716 85 35 0.0 0.0 0.00 0.00 0.00 69 1015.3
20210616011616 85 35 0.0 0.0 0.00 0.00 0.00 68 1015.3
20210616011515 85 35 0.0 0.0 0.00 0.00 0.00 68 1015.3
20210616011215 85 35 0.0 0.0 0.00 0.00 0.00 69 1015.3
20210616011015 85 35 0.0 0.0 0.00 0.00 0.00 68 1015.3
20210616010916 85 35 0.0 0.0 0.00 0.00 0.00 69 1015.2
20210616010617 85 35 0.0 0.0 0.00 0.00 0.00 69 1015.1
20210616010516 85 35 0.0 0.0 0.00 0.00 0.00 68 1015.1
20210616010216 85 35 0.0 0.0 0.00 0.00 0.00 69 1015.1
20210616005917 85 35 0.0 0.0 0.00 0.00 0.00 69 1015.0
20210616005816 85 35 0.0 0.0 0.00 0.00 0.00 69 1015.0
20210616005415 85 35 0.0 0.0 0.00 0.00 0.00 69 1014.9
20210616005015 85 35 0.0 0.0 0.00 0.00 0.00 69 1014.9
20210616004516 85 35 0.0 0.0 0.00 0.00 0.00 69 1014.8
20210616004215 85 35 0.0 0.0 0.00 0.00 0.00 69 1014.8
20210616003916 85 35 0.0 0.0 0.00 0.00 0.00 69 1014.7
20210616003815 85 35 0.0 0.0 0.00 0.00 0.00 69 1014.7
20210616003716 85 35 0.0 0.0 0.00 0.00 0.00 69 1014.7
20210616003615 85 35 0.0 0.0 0.00 0.00 0.00 68 1014.7
20210616003415 85 35 0.0 0.0 0.00 0.00 0.00 68 1014.6
20210616003216 85 35 0.0 0.0 0.00 0.00 0.00 69 1014.5
20210616003115 85 35 0.0 0.0 0.00 0.00 0.00 69 1014.5
20210616002916 85 35 0.0 0.0 0.00 0.00 0.00 69 1014.5
20210616002716 85 35 0.0 0.0 0.00 0.00 0.00 69 1014.5
20210616002615 85 35 0.0 0.0 0.00 0.00 0.00 69 1014.4
20210616002416 85 35 0.0 4.0 0.00 0.00 0.00 69 1014.4
20210616002316 85 35 0.0 4.0 0.00 0.00 0.00 69 1014.4
20210616002216 85 35 0.0 4.0 0.00 0.00 0.00 69 1014.3
20210616002115 85 35 0.0 4.0 0.00 0.00 0.00 69 1014.3
20210616002016 85 35 0.0 4.0 0.00 0.00 0.00 69 1014.3
20210616001715 85 43 2.0 7.0 0.00 0.00 0.00 69 1014.2
20210616001416 85 63 2.0 0.0 0.00 0.00 0.00 69 1014.3
20210616001216 85 37 4.0 0.0 0.00 0.00 0.00 69 1014.4
20210616000916 85 18 0.0 0.0 0.00 0.00 0.00 69 1014.5
20210616000715 85 18 0.0 0.0 0.00 0.00 0.00 69 1014.6
20210616000116 85 18 0.0 0.0 0.00 0.00 0.00 69 1014.6
20210615235616 85 18 0.0 0.0 0.00 0.00 0.00 69 1014.5
20210615235515 85 18 0.0 0.0 0.00 0.00 0.00 68 1014.4
20210615235315 85 18 0.0 0.0 0.00 0.00 0.00 68 1014.4
20210615235216 85 18 0.0 0.0 0.00 0.00 0.00 68 1014.3
20210615235016 85 18 0.0 0.0 0.00 0.00 0.00 68 1014.3
20210615234917 85 18 0.0 2.0 0.00 0.00 0.00 68 1014.3
20210615234815 85 18 0.0 2.0 0.00 0.00 0.00 68 1014.3
20210615234415 85 18 0.0 3.0 0.00 0.00 0.00 68 1014.3
20210615234316 85 113 2.0 3.0 0.00 0.00 0.00 68 1010.5
20210615233917 85 9 0.0 3.0 0.00 0.00 0.00 68 1014.2
20210615233616 86 9 0.0 3.0 0.00 0.00 0.00 68 1012.8
20210615233415 85 105 0.0 4.0 0.00 0.00 0.00 68 1012.4
20210615233315 85 105 0.0 4.0 0.00 0.00 0.00 68 1013.4
20210615233216 85 105 0.0 4.0 0.00 0.00 0.00 28 1011.2
20210615233115 86 19 1.0 4.0 0.00 0.00 0.00 28 1011.4
20210615233016 86 174 0.0 4.0 0.00 0.00 0.00 68 1014.1
20210615232915 85 174 0.0 4.0 0.00 0.00 0.00 68 1014.1
20210615232215 85 52 0.0 2.0 0.00 0.00 0.00 68 1014.1
20210615232016 85 33 0.0 2.0 0.00 0.00 0.00 69 1014.1
20210615231816 85 40 0.0 3.0 0.00 0.00 0.00 68 1014.1
20210615231716 85 40 0.0 3.0 0.00 0.00 0.00 69 1014.1
20210615231616 85 71 0.0 3.0 0.00 0.00 0.00 69 1014.1
20210615231516 85 54 0.0 3.0 0.00 0.00 0.00 68 1014.2
20210615231415 85 54 0.0 0.0 0.00 0.00 0.00 68 1014.1
20210615231316 85 320 1.0 0.0 0.00 0.00 0.00 68 1014.1
20210615230916 85 57 0.0 0.0 0.00 0.00 0.00 68 1014.1
20210615230516 85 57 0.0 0.0 0.00 0.00 0.00 68 1014.2
20210615230216 86 57 0.0 0.0 0.00 0.00 0.00 67 1014.3
20210615230015 86 57 0.0 0.0 0.00 0.00 0.00 67 1013.0
20210615225916 86 57 0.0 4.0 0.00 0.00 0.00 68 1012.7
20210615225616 86 57 0.0 4.0 0.00 0.00 0.00 68 1013.6
20210615225516 86 57 0.0 4.0 0.00 0.00 0.00 67 1014.4
20210615225416 86 57 0.0 5.0 0.00 0.00 0.00 67 1014.4
20210615225216 86 40 2.0 5.0 0.00 0.00 0.00 67 1014.4
20210615224917 86 59 0.0 1.0 0.00 0.00 0.00 67 1014.5
20210615224815 86 59 0.0 1.0 0.00 0.00 0.00 67 1014.4
20210615224415 86 59 0.0 2.0 0.00 0.00 0.00 67 1014.3
20210615224216 86 59 0.0 2.0 0.00 0.00 0.00 67 1014.4
20210615224116 86 90 0.0 2.0 0.00 0.00 0.00 67 1014.3
20210615224015 86 90 0.0 2.0 0.00 0.00 0.00 67 1014.3
20210615223917 86 90 1.0 0.0 0.00 0.00 0.00 67 1014.3
20210615223716 86 111 0.0 0.0 0.00 0.00 0.00 67 1014.1
20210615223616 86 102 0.0 0.0 0.00 0.00 0.00 67 1014.1
20210615223216 86 102 0.0 0.0 0.00 0.00 0.00 67 1014.0
20210615223116 86 102 0.0 0.0 0.00 0.00 0.00 67 1014.0
20210615223015 86 102 0.0 0.0 0.00 0.00 0.00 67 1013.9
20210615222717 86 102 0.0 0.0 0.00 0.00 0.00 67 1013.9
20210615222415 86 102 0.0 0.0 0.00 0.00 0.00 67 1013.8
20210615222015 86 102 0.0 0.0 0.00 0.00 0.00 66 1013.8
20210615221515 86 102 0.0 0.0 0.00 0.00 0.00 67 1013.7
20210615221417 86 102 0.0 0.0 0.00 0.00 0.00 67 1013.6
20210615221116 86 102 0.0 0.0 0.00 0.00 0.00 66 1013.5
20210615221017 86 102 0.0 0.0 0.00 0.00 0.00 67 1013.4
20210615220816 86 102 0.0 0.0 0.00 0.00 0.00 66 1013.5
20210615220716 86 102 0.0 0.0 0.00 0.00 0.00 66 1013.5
20210615220415 86 102 0.0 4.0 0.00 0.00 0.00 66 1013.6
20210615220316 86 102 0.0 4.0 0.00 0.00 0.00 67 1013.5
20210615220015 86 102 0.0 4.0 0.00 0.00 0.00 67 1013.5
20210615215716 86 68 2.0 0.0 0.00 0.00 0.00 66 1013.5
20210615215316 86 12 0.0 2.0 0.00 0.00 0.00 66 1013.6
20210615215116 86 12 0.0 2.0 0.00 0.00 0.00 65 1013.6
20210615215016 86 12 0.0 2.0 0.00 0.00 0.00 65 1013.6
20210615214915 86 12 0.0 6.0 0.00 0.00 0.00 65 1013.6
20210615214715 86 14 1.0 6.0 0.00 0.00 0.00 65 1013.6
20210615214616 86 7 0.0 6.0 0.00 0.00 0.00 65 1013.6
20210615214416 86 32 0.0 3.0 0.00 0.00 0.00 66 1013.5
20210615214316 86 32 0.0 3.0 0.00 0.00 0.00 66 1013.5
20210615214217 86 32 0.0 3.0 0.00 0.00 0.00 65 1013.5
20210615213115 87 127 0.0 0.0 0.00 0.00 0.00 64 1013.5
20210615213017 87 127 0.0 0.0 0.00 0.00 0.00 64 1013.6
20210615212916 87 127 0.0 2.0 0.00 0.00 0.00 64 1013.5
20210615212816 87 127 0.0 2.0 0.00 0.00 0.00 65 1013.6
20210615212716 87 127 0.0 2.0 0.00 0.00 0.00 65 1013.5
20210615212615 87 127 0.0 2.0 0.00 0.00 0.00 65 1013.6
20210615212417 87 120 2.0 6.0 0.00 0.00 0.00 65 1013.6
20210615212216 87 106 0.0 6.0 0.00 0.00 0.00 65 1013.7
20210615212017 87 106 0.0 6.0 0.00 0.00 0.00 65 1013.7
20210615211817 87 97 0.0 0.0 0.00 0.00 0.00 65 1013.7
20210615211616 87 140 5.0 0.0 0.00 0.00 0.00 65 1013.6
20210615211517 87 81 0.0 0.0 0.00 0.00 0.00 65 1013.6
20210615211316 87 81 0.0 0.0 0.00 0.00 0.00 66 1013.5
20210615210616 87 81 0.0 0.0 0.00 0.00 0.00 66 1013.5
20210615210517 87 81 0.0 0.0 0.00 0.00 0.00 67 1013.5
20210615210416 87 81 0.0 0.0 0.00 0.00 0.00 66 1013.6
20210615210016 87 81 0.0 0.0 0.00 0.00 0.00 66 1013.7
20210615205916 87 81 0.0 3.0 0.00 0.00 0.00 66 1013.7
20210615205816 87 81 0.0 3.0 0.00 0.00 0.00 66 1013.7
20210615205715 87 81 0.0 3.0 0.00 0.00 0.00 66 1013.7
20210615205616 87 81 0.0 3.0 0.00 0.00 0.00 66 1013.7
20210615205516 87 81 0.0 3.0 0.00 0.00 0.00 65 1013.7
20210615205316 87 81 0.0 10.0 0.00 0.00 0.00 65 1013.7
20210615205115 87 81 0.0 10.0 0.00 0.00 0.00 64 1013.7
20210615204815 87 157 7.0 9.0 0.00 0.00 0.00 64 1013.6
20210615204416 87 106 0.0 10.0 0.00 0.00 0.00 64 1013.5
20210615204315 87 125 3.0 10.0 0.00 0.00 0.00 64 1013.5
20210615204216 87 142 7.0 10.0 0.00 0.00 0.00 64 1013.6
20210615204016 87 154 6.0 10.0 0.00 0.00 0.00 65 1013.7
20210615203515 87 126 0.0 9.0 0.00 0.00 0.00 64 1013.9
20210615203216 87 126 0.0 11.0 0.00 0.00 0.00 64 1013.9
20210615202916 86 98 4.0 12.0 0.00 0.00 0.00 64 1014.0
20210615202516 86 122 1.0 12.0 0.00 0.00 0.00 65 1014.1
20210615201816 86 113 6.0 11.0 0.00 0.00 0.00 64 1014.3
20210615201717 86 92 4.0 11.0 0.00 0.00 0.00 64 1014.4
20210615201516 86 142 8.0 11.0 0.00 0.00 0.00 66 1014.3
20210615201416 86 143 9.0 12.0 0.00 0.00 0.00 66 1014.3
20210615201015 86 116 7.0 12.0 0.00 0.00 0.00 66 1014.3
20210615200616 87 142 11.0 11.0 0.00 0.00 0.00 66 1014.3
20210615200515 87 108 9.0 11.0 0.00 0.00 0.00 66 1014.3
20210615200416 87 151 5.0 13.0 0.00 0.00 0.00 65 1014.2
20210615200216 87 146 6.0 13.0 0.00 0.00 0.00 65 1014.2
20210615200016 87 57 1.0 13.0 0.00 0.00 0.00 65 1014.3
20210615195916 87 115 3.0 13.0 0.00 0.00 0.00 65 1014.2
20210615195316 87 122 6.0 13.0 0.00 0.00 0.00 64 1014.1
20210615195117 87 154 3.0 13.0 0.00 0.00 0.00 64 1014.1
20210615195015 86 135 13.0 13.0 0.00 0.00 0.00 64 1014.1
20210615194916 87 136 6.0 11.0 0.00 0.00 0.00 64 1014.1
20210615194716 86 129 6.0 11.0 0.00 0.00 0.00 65 1014.1
20210615194516 87 150 6.0 11.0 0.00 0.00 0.00 63 1014.1
20210615194315 87 164 4.0 15.0 0.00 0.00 0.00 63 1014.1
20210615194216 87 118 0.0 15.0 0.00 0.00 0.00 63 1014.1
20210615194015 87 154 7.0 15.0 0.00 0.00 0.00 63 1014.2
20210615193615 87 132 9.0 16.0 0.00 0.00 0.00 62 1014.3
20210615193516 87 142 10.0 16.0 0.00 0.00 0.00 62 1014.2
20210615193416 87 151 14.0 12.0 0.00 0.00 0.00 63 1014.3
20210615193316 87 137 9.0 12.0 0.00 0.00 0.00 64 1014.3
20210615192915 87 154 1.0 14.0 0.00 0.00 0.00 62 1014.3
20210615192817 87 187 6.0 14.0 0.00 0.00 0.00 62 1014.3
20210615192717 87 125 8.0 14.0 0.00 0.00 0.00 62 1014.3
20210615192616 87 132 0.0 14.0 0.00 0.00 0.00 62 1014.3
20210615192416 87 130 9.0 14.0 0.00 0.00 0.00 62 1014.3
20210615192317 87 137 10.0 14.0 0.00 0.00 0.00 63 1014.4
20210615192116 87 116 2.0 14.0 0.00 0.00 0.00 64 1014.4
20210615192016 87 116 4.0 14.0 0.00 0.00 0.00 64 1014.5
20210615191916 87 85 0.0 7.0 0.00 0.00 0.00 64 1014.4
20210615191616 87 147 6.0 7.0 0.00 0.00 0.00 62 1014.4
20210615191516 87 88 0.0 7.0 0.00 0.00 0.00 62 1014.4
20210615191415 87 35 0.0 15.0 0.00 0.00 0.00 63 1014.4
20210615191316 87 188 0.0 15.0 0.00 0.00 0.00 64 1014.3
20210615191016 87 126 0.0 15.0 0.00 0.00 0.00 64 1014.3
20210615190915 87 115 0.0 13.0 0.00 0.00 0.00 64 1014.3
20210615190816 87 329 1.0 13.0 0.00 0.00 0.00 64 1014.3
20210615190717 87 111 1.0 13.0 0.00 0.00 0.00 64 1014.3
20210615190616 87 146 6.0 13.0 0.00 0.00 0.00 64 1014.3
20210615190516 87 125 14.0 13.0 0.00 0.00 0.00 64 1014.4
20210615190416 87 112 6.0 13.0 0.00 0.00 0.00 64 1014.4
20210615190315 87 102 11.0 13.0 0.00 0.00 0.00 64 1014.4
20210615190016 87 146 11.0 13.0 0.00 0.00 0.00 63 1014.4
20210615185717 87 358 1.0 16.0 0.00 0.00 0.00 63 1014.4
20210615185615 87 125 9.0 16.0 0.00 0.00 0.00 62 1014.4
20210615185316 87 168 8.0 12.0 0.00 0.00 0.00 62 1014.4
20210615185116 88 133 10.0 12.0 0.00 0.00 0.00 64 1014.4
20210615184915 87 52 0.0 9.0 0.00 0.00 0.00 63 1014.5
20210615184315 87 154 1.0 13.0 0.00 0.00 0.00 63 1014.5
20210615184016 87 23 3.0 13.0 0.00 0.00 0.00 62 1014.5
20210615183515 87 106 6.0 14.0 0.00 0.00 0.00 64 1014.6
20210615183416 87 81 10.0 11.0 0.00 0.00 0.00 65 1014.6
20210615183216 88 158 7.0 11.0 0.00 0.00 0.00 65 1014.6
20210615183016 87 150 9.0 11.0 0.00 0.00 0.00 64 1014.6
20210615182915 87 67 1.0 12.0 0.00 0.00 0.00 64 1014.7
20210615182816 88 49 0.0 12.0 0.00 0.00 0.00 64 1014.7
20210615182715 87 95 0.0 12.0 0.00 0.00 0.00 64 1014.7
20210615182515 87 78 5.0 12.0 0.00 0.00 0.00 65 1014.7
20210615182416 87 39 0.0 17.0 0.00 0.00 0.00 65 1014.7
20210615182217 87 109 0.0 17.0 0.00 0.00 0.00 65 1014.7
20210615182016 87 150 8.0 17.0 0.00 0.00 0.00 65 1014.7
20210615181716 87 105 5.0 12.0 0.00 0.00 0.00 64 1014.8
20210615181416 88 127 3.0 8.0 0.00 0.00 0.00 65 1014.8
20210615181016 88 43 2.0 8.0 0.00 0.00 0.00 64 1014.9
20210615180916 88 350 0.0 11.0 0.00 0.00 0.00 64 1014.9
20210615180816 88 350 0.0 11.0 0.00 0.00 0.00 64 1014.9
20210615180716 88 63 0.0 11.0 0.00 0.00 0.00 64 1015.0
20210615180516 88 157 4.0 11.0 0.00 0.00 0.00 64 1015.0
20210615180416 88 165 7.0 3.0 0.00 0.00 0.00 65 1015.1
20210615180316 88 180 9.0 3.0 0.00 0.00 0.00 65 1015.0
20210615180116 88 25 0.0 3.0 0.00 0.00 0.00 64 1015.1
20210615180016 88 84 1.0 3.0 0.00 0.00 0.00 64 1015.1
20210615175916 88 146 0.0 4.0 0.00 0.00 0.00 64 1015.1
20210615175816 88 146 0.0 4.0 0.00 0.00 0.00 64 1015.2
20210615175715 88 146 1.0 4.0 0.00 0.00 0.00 64 1015.2
20210615175616 88 130 0.0 4.0 0.00 0.00 0.00 64 1015.2
20210615175316 88 184 0.0 11.0 0.00 0.00 0.00 64 1015.2
20210615175216 88 184 0.0 11.0 0.00 0.00 0.00 64 1015.2
20210615175016 88 165 0.0 11.0 0.00 0.00 0.00 64 1015.2
20210615174915 88 127 10.0 4.0 0.00 0.00 0.00 63 1015.2
20210615174416 88 84 0.0 10.0 0.00 0.00 0.00 64 1015.2
20210615174315 88 57 0.0 10.0 0.00 0.00 0.00 64 1015.2
20210615174216 88 146 3.0 10.0 0.00 0.00 0.00 64 1015.2
20210615174117 88 209 0.0 10.0 0.00 0.00 0.00 64 1015.2
20210615173916 88 37 0.0 4.0 0.00 0.00 0.00 64 1015.2
20210615173716 88 82 1.0 4.0 0.00 0.00 0.00 63 1015.2
20210615173416 88 127 0.0 5.0 0.00 0.00 0.00 63 1015.2
20210615172816 88 160 0.0 3.0 0.00 0.00 0.00 64 1015.2
20210615172717 88 160 0.0 3.0 0.00 0.00 0.00 63 1015.3
20210615172616 88 22 0.0 3.0 0.00 0.00 0.00 63 1015.2
20210615172516 88 109 0.0 3.0 0.00 0.00 0.00 63 1015.3
20210615172416 88 178 1.0 2.0 0.00 0.00 0.00 63 1015.3
20210615172315 88 104 0.0 2.0 0.00 0.00 0.00 63 1015.3
20210615172116 88 80 0.0 2.0 0.00 0.00 0.00 63 1015.3
20210615171916 87 104 0.0 3.0 0.00 0.00 0.00 63 1015.3
20210615171815 88 104 0.0 3.0 0.00 0.00 0.00 63 1015.3
20210615171716 88 104 0.0 3.0 0.00 0.00 0.00 63 1015.3
20210615171516 88 104 1.0 3.0 0.00 0.00 0.00 62 1015.2
20210615171416 88 25 0.0 1.0 0.00 0.00 0.00 62 1015.2
20210615171217 88 56 0.0 1.0 0.00 0.00 0.00 62 1015.3
20210615171016 88 32 0.0 1.0 0.00 0.00 0.00 62 1015.3
20210615170917 88 32 0.0 3.0 0.00 0.00 0.00 62 1015.3
20210615170716 88 106 0.0 3.0 0.00 0.00 0.00 62 1015.3
20210615170516 88 106 0.0 3.0 0.00 0.00 0.00 62 1015.3
20210615170216 88 115 0.0 3.0 0.00 0.00 0.00 62 1015.4
20210615165217 89 174 0.0 2.0 0.00 0.00 0.00 62 1015.3
20210615165015 89 174 0.0 2.0 0.00 0.00 0.00 62 1015.4
20210615164716 88 99 0.0 4.0 0.00 0.00 0.00 62 1015.4
20210615164516 88 99 1.0 4.0 0.00 0.00 0.00 62 1015.3
20210615164415 88 99 0.0 3.0 0.00 0.00 0.00 62 1015.4
20210615164316 88 37 0.0 3.0 0.00 0.00 0.00 62 1015.4
20210615164216 88 158 2.0 3.0 0.00 0.00 0.00 62 1015.4
20210615164116 88 358 0.0 3.0 0.00 0.00 0.00 63 1015.4
20210615164016 88 153 1.0 3.0 0.00 0.00 0.00 63 1015.4
20210615163716 88 153 0.0 2.0 0.00 0.00 0.00 63 1015.5
20210615163515 88 37 0.0 2.0 0.00 0.00 0.00 63 1015.4
20210615163317 88 37 0.0 6.0 0.00 0.00 0.00 63 1015.5
20210615162916 88 66 0.0 0.0 0.00 0.00 0.00 63 1015.5
20210615162816 87 78 0.0 0.0 0.00 0.00 0.00 63 1015.6
20210615162715 88 95 1.0 0.0 0.00 0.00 0.00 63 1015.5
20210615162616 88 92 0.0 0.0 0.00 0.00 0.00 64 1015.5
20210615162416 88 196 0.0 3.0 0.00 0.00 0.00 64 1015.5
20210615162216 88 196 0.0 3.0 0.00 0.00 0.00 64 1015.6
20210615162016 87 196 0.0 3.0 0.00 0.00 0.00 65 1015.5
20210615161616 88 74 1.0 2.0 0.00 0.00 0.00 65 1015.5
20210615161416 88 63 0.0 1.0 0.00 0.00 0.00 65 1015.6
20210615161215 87 63 0.0 1.0 0.00 0.00 0.00 65 1015.6
20210615161117 88 63 0.0 1.0 0.00 0.00 0.00 64 1015.6
20210615161015 87 63 0.0 1.0 0.00 0.00 0.00 64 1015.6
20210615160916 87 63 0.0 3.0 0.00 0.00 0.00 65 1015.6
20210615160816 87 85 0.0 3.0 0.00 0.00 0.00 65 1015.6
20210615160715 87 85 0.0 3.0 0.00 0.00 0.00 65 1015.6
20210615160515 87 172 0.0 3.0 0.00 0.00 0.00 65 1015.6
20210615160416 87 144 0.0 2.0 0.00 0.00 0.00 65 1015.6
20210615160317 87 129 0.0 2.0 0.00 0.00 0.00 65 1015.6
20210615160215 87 129 0.0 2.0 0.00 0.00 0.00 65 1015.6
20210615160116 87 129 0.0 2.0 0.00 0.00 0.00 65 1015.6
20210615160016 87 54 0.0 2.0 0.00 0.00 0.00 65 1015.7
20210615155615 87 54 0.0 2.0 0.00 0.00 0.00 65 1015.6
20210615155519 87 35 0.0 2.0 0.00 0.00 0.00 65 1015.6
20210615155216 87 106 0.0 6.0 0.00 0.00 0.00 64 1015.6
20210615155016 87 106 0.0 6.0 0.00 0.00 0.00 64 1015.6
20210615154716 88 70 0.0 1.0 0.00 0.00 0.00 64 1015.6
20210615154616 87 52 1.0 1.0 0.00 0.00 0.00 64 1015.6
20210615154515 87 126 0.0 1.0 0.00 0.00 0.00 64 1015.6
20210615154416 87 126 0.0 2.0 0.00 0.00 0.00 64 1015.6
20210615154216 88 126 0.0 2.0 0.00 0.00 0.00 64 1015.6
20210615154016 88 126 0.0 2.0 0.00 0.00 0.00 64 1015.6
20210615153916 88 126 1.0 2.0 0.00 0.00 0.00 64 1015.6
20210615153815 88 222 1.0 2.0 0.00 0.00 0.00 64 1015.6
20210615153517 88 129 0.0 2.0 0.00 0.00 0.00 65 1015.6
20210615153416 88 129 1.0 8.0 0.00 0.00 0.00 65 1015.6
20210615153115 87 135 0.0 8.0 0.00 0.00 0.00 65 1015.6
20210615152916 87 116 0.0 7.0 0.00 0.00 0.00 66 1015.6
20210615152615 87 232 0.0 7.0 0.00 0.00 0.00 67 1015.5
20210615152316 86 73 0.0 5.0 0.00 0.00 0.00 67 1015.5
20210615152016 86 90 0.0 5.0 0.00 0.00 0.00 68 1015.5
20210615151416 86 202 0.0 1.0 0.00 0.00 0.00 68 1015.5
20210615150916 86 23 0.0 3.0 0.00 0.00 0.00 69 1015.5
20210615150717 86 23 0.0 3.0 0.00 0.00 0.00 69 1015.5
20210615150315 86 146 0.0 3.0 0.00 0.00 0.00 69 1015.4
20210615145916 86 146 0.0 5.0 0.00 0.00 0.00 69 1015.4
20210615145716 86 11 0.0 5.0 0.00 0.00 0.00 69 1015.4
20210615145215 85 49 0.0 3.0 0.00 0.00 0.00 70 1015.4
20210615145016 85 49 0.0 3.0 0.00 0.00 0.00 70 1015.4
20210615144816 85 49 0.0 1.0 0.00 0.00 0.00 69 1015.4
20210615144715 85 37 2.0 1.0 0.00 0.00 0.00 69 1015.4
20210615144516 85 57 0.0 1.0 0.00 0.00 0.00 69 1015.4
20210615144316 85 57 0.0 3.0 0.00 0.00 0.00 69 1015.4
20210615144016 85 198 1.0 3.0 0.00 0.00 0.00 70 1015.3
20210615143915 85 94 1.0 1.0 0.00 0.00 0.00 70 1015.3
20210615143816 85 113 0.0 1.0 0.00 0.00 0.00 70 1015.3
20210615143616 85 54 0.0 1.0 0.00 0.00 0.00 70 1015.3
20210615143516 85 115 0.0 1.0 0.00 0.00 0.00 70 1015.3
20210615143315 85 115 0.0 3.0 0.00 0.00 0.00 70 1015.3
20210615143115 85 115 0.0 3.0 0.00 0.00 0.00 69 1015.2
20210615142915 85 115 0.0 1.0 0.00 0.00 0.00 70 1015.2
20210615142816 85 74 1.0 1.0 0.00 0.00 0.00 70 1015.2
20210615142417 85 12 0.0 1.0 0.00 0.00 0.00 70 1015.1
20210615142316 85 12 0.0 1.0 0.00 0.00 0.00 70 1015.2
20210615142217 85 12 0.0 1.0 0.00 0.00 0.00 70 1015.1
20210615142116 85 12 0.0 1.0 0.00 0.00 0.00 70 1015.1
20210615142016 85 12 0.0 1.0 0.00 0.00 0.00 70 1015.1
20210615141915 85 11 0.0 0.0 0.00 0.00 0.00 70 1015.2
20210615141817 85 119 0.0 0.0 0.00 0.00 0.00 70 1015.1
20210615141716 85 119 0.0 0.0 0.00 0.00 0.00 70 1015.2
20210615141416 85 119 0.0 2.0 0.00 0.00 0.00 69 1015.1
20210615141315 85 119 0.0 2.0 0.00 0.00 0.00 69 1015.1
20210615141216 85 119 0.0 2.0 0.00 0.00 0.00 70 1015.2
20210615141116 85 119 0.0 2.0 0.00 0.00 0.00 70 1015.1
20210615141016 85 119 0.0 2.0 0.00 0.00 0.00 70 1015.1
20210615140915 85 119 0.0 3.0 0.00 0.00 0.00 70 1015.1
20210615140816 85 119 0.0 3.0 0.00 0.00 0.00 70 1015.1
20210615140415 85 143 0.0 5.0 0.00 0.00 0.00 70 1015.1
20210615140316 85 143 0.0 5.0 0.00 0.00 0.00 70 1015.0
20210615140117 85 143 0.0 5.0 0.00 0.00 0.00 70 1015.1
20210615135616 85 182 0.0 5.0 0.00 0.00 0.00 70 1015.0
20210615135116 85 151 2.0 7.0 0.00 0.00 0.00 70 1015.0
20210615135017 85 142 2.0 7.0 0.00 0.00 0.00 70 1014.9
20210615134916 85 150 3.0 3.0 0.00 0.00 0.00 70 1015.0
20210615134816 85 156 6.0 3.0 0.00 0.00 0.00 70 1014.9
20210615134516 85 160 2.0 3.0 0.00 0.00 0.00 69 1014.9
20210615134415 85 118 1.0 7.0 0.00 0.00 0.00 69 1014.9
20210615134316 85 154 0.0 7.0 0.00 0.00 0.00 69 1014.9
20210615134016 85 154 0.0 7.0 0.00 0.00 0.00 69 1014.9
20210615133816 85 95 0.0 7.0 0.00 0.00 0.00 70 1014.8
20210615133716 85 109 3.0 7.0 0.00 0.00 0.00 70 1014.9
20210615133417 85 147 1.0 8.0 0.00 0.00 0.00 70 1014.8
20210615133316 85 80 0.0 8.0 0.00 0.00 0.00 70 1014.8
20210615132716 85 165 3.0 8.0 0.00 0.00 0.00 70 1014.8
20210615132517 85 87 0.0 8.0 0.00 0.00 0.00 71 1014.8
20210615132416 85 119 2.0 8.0 0.00 0.00 0.00 71 1014.8
20210615132216 85 161 3.0 8.0 0.00 0.00 0.00 70 1014.8
20210615132116 85 140 7.0 8.0 0.00 0.00 0.00 70 1014.8
20210615132017 85 120 3.0 8.0 0.00 0.00 0.00 70 1014.8
20210615131416 84 154 1.0 9.0 0.00 0.00 0.00 71 1014.8
20210615131316 84 123 3.0 9.0 0.00 0.00 0.00 71 1014.8
20210615131216 84 135 2.0 9.0 0.00 0.00 0.00 72 1014.7
20210615131116 84 160 2.0 9.0 0.00 0.00 0.00 72 1014.8
20210615130916 84 139 5.0 9.0 0.00 0.00 0.00 72 1014.8
20210615130415 84 118 6.0 8.0 0.00 0.00 0.00 73 1014.8
20210615130115 84 143 7.0 8.0 0.00 0.00 0.00 73 1014.8
20210615130017 84 146 6.0 8.0 0.00 0.00 0.00 72 1014.8
20210615125915 84 153 4.0 7.0 0.00 0.00 0.00 72 1014.8
20210615125716 84 149 5.0 7.0 0.00 0.00 0.00 72 1014.8
20210615125615 83 146 5.0 7.0 0.00 0.00 0.00 72 1014.8
20210615125516 84 135 0.0 7.0 0.00 0.00 0.00 73 1014.8
20210615125416 84 135 3.0 8.0 0.00 0.00 0.00 72 1014.8
20210615125215 83 53 1.0 8.0 0.00 0.00 0.00 72 1014.8
20210615125016 83 136 5.0 8.0 0.00 0.00 0.00 72 1014.8
20210615124916 83 127 5.0 7.0 0.00 0.00 0.00 72 1014.8
20210615124716 83 150 7.0 7.0 0.00 0.00 0.00 73 1014.8
20210615124615 84 139 4.0 7.0 0.00 0.00 0.00 73 1014.9
20210615124416 84 140 6.0 10.0 0.00 0.00 0.00 73 1014.8
20210615124316 84 7 2.0 10.0 0.00 0.00 0.00 73 1014.8
20210615124216 84 143 4.0 10.0 0.00 0.00 0.00 73 1014.8
20210615124016 83 149 6.0 10.0 0.00 0.00 0.00 73 1014.8
20210615123915 83 144 7.0 9.0 0.00 0.00 0.00 73 1014.9
20210615123717 83 147 6.0 9.0 0.00 0.00 0.00 73 1014.8
20210615123616 83 146 8.0 9.0 0.00 0.00 0.00 72 1014.8
20210615123515 83 151 6.0 9.0 0.00 0.00 0.00 72 1014.7
20210615123316 83 115 6.0 9.0 0.00 0.00 0.00 73 1014.7
20210615123216 83 164 5.0 9.0 0.00 0.00 0.00 72 1014.7
20210615123017 83 157 5.0 9.0 0.00 0.00 0.00 72 1014.7
20210615122616 83 144 7.0 8.0 0.00 0.00 0.00 72 1014.7
20210615122416 83 164 6.0 8.0 0.00 0.00 0.00 72 1014.7
20210615122216 83 151 5.0 8.0 0.00 0.00 0.00 71 1014.8
20210615122115 83 143 6.0 8.0 0.00 0.00 0.00 72 1014.8
20210615121716 83 142 5.0 9.0 0.00 0.00 0.00 71 1014.8
20210615121617 83 139 7.0 9.0 0.00 0.00 0.00 72 1014.7
20210615121416 83 153 9.0 9.0 0.00 0.00 0.00 72 1014.7
20210615121217 83 144 0.0 9.0 0.00 0.00 0.00 72 1014.7
20210615120716 83 153 3.0 10.0 0.00 0.00 0.00 72 1014.8
20210615120616 83 171 4.0 10.0 0.00 0.00 0.00 72 1014.8
20210615120316 83 136 3.0 9.0 0.00 0.00 0.00 71 1014.7
20210615120215 83 104 8.0 9.0 0.00 0.00 0.00 72 1014.7
20210615120015 83 203 2.0 9.0 0.00 0.00 0.00 72 1014.7
20210615115916 83 137 4.0 10.0 0.00 0.00 0.00 73 1014.7
20210615115815 83 139 6.0 10.0 0.00 0.00 0.00 72 1014.6
20210615115519 83 144 3.0 10.0 0.00 0.00 0.00 72 1014.7
20210615115415 83 140 8.0 10.0 0.00 0.00 0.00 72 1014.7
20210615115315 83 129 4.0 10.0 0.00 0.00 0.00 72 1014.7
20210615115217 83 137 9.0 10.0 0.00 0.00 0.00 72 1014.7
20210615115115 84 143 7.0 10.0 0.00 0.00 0.00 72 1014.7
20210615115016 83 129 8.0 10.0 0.00 0.00 0.00 72 1014.7
20210615114516 83 123 9.0 9.0 0.00 0.00 0.00 72 1014.7
20210615114416 83 144 7.0 10.0 0.00 0.00 0.00 72 1014.7
20210615114316 83 142 6.0 10.0 0.00 0.00 0.00 72 1014.7
20210615114116 83 132 5.0 10.0 0.00 0.00 0.00 71 1014.7
20210615113817 83 149 8.0 9.0 0.00 0.00 0.00 72 1014.6
20210615113715 83 149 6.0 9.0 0.00 0.00 0.00 72 1014.6
20210615113515 83 130 5.0 9.0 0.00 0.00 0.00 71 1014.6
20210615113416 83 125 8.0 10.0 0.00 0.00 0.00 71 1014.6
20210615113315 83 139 7.0 10.0 0.00 0.00 0.00 71 1014.6
20210615113216 83 130 8.0 10.0 0.00 0.00 0.00 71 1014.5
20210615113116 83 167 8.0 10.0 0.00 0.00 0.00 71 1014.5
20210615113016 83 153 5.0 10.0 0.00 0.00 0.00 72 1014.5
20210615112615 83 136 9.0 9.0 0.00 0.00 0.00 72 1014.5
20210615112115 82 105 6.0 10.0 0.00 0.00 0.00 71 1014.4
20210615111915 83 144 5.0 10.0 0.00 0.00 0.00 72 1014.5
20210615111816 83 146 5.0 10.0 0.00 0.00 0.00 71 1014.4
20210615111716 83 135 7.0 10.0 0.00 0.00 0.00 71 1014.4
20210615111616 83 129 9.0 10.0 0.00 0.00 0.00 71 1014.5
20210615111416 83 139 7.0 8.0 0.00 0.00 0.00 71 1014.5
20210615111315 82 135 7.0 8.0 0.00 0.00 0.00 71 1014.5
20210615111216 83 132 8.0 8.0 0.00 0.00 0.00 71 1014.5
20210615111116 83 136 5.0 8.0 0.00 0.00 0.00 71 1014.4
20210615111015 83 143 3.0 8.0 0.00 0.00 0.00 71 1014.4
20210615110815 83 130 0.0 6.0 0.00 0.00 0.00 71 1014.4
20210615110615 83 125 4.0 6.0 0.00 0.00 0.00 71 1014.3
20210615110516 82 113 3.0 6.0 0.00 0.00 0.00 71 1014.3
20210615110415 83 111 1.0 8.0 0.00 0.00 0.00 71 1014.3
20210615110216 83 77 0.0 8.0 0.00 0.00 0.00 71 1014.3
20210615110016 83 185 4.0 8.0 0.00 0.00 0.00 71 1014.3
20210615105915 83 184 3.0 0.0 0.00 0.00 0.00 71 1014.3
20210615105315 83 85 0.0 5.0 0.00 0.00 0.00 70 1014.3
20210615105116 83 85 0.0 5.0 0.00 0.00 0.00 71 1014.3
20210615105017 82 85 0.0 5.0 0.00 0.00 0.00 71 1014.2
20210615104915 83 85 0.0 7.0 0.00 0.00 0.00 70 1014.2
20210615104616 82 156 0.0 7.0 0.00 0.00 0.00 70 1014.2
20210615104515 83 156 0.0 7.0 0.00 0.00 0.00 70 1014.2
20210615104417 83 50 0.0 9.0 0.00 0.00 0.00 70 1014.2
20210615104315 82 125 0.0 9.0 0.00 0.00 0.00 70 1014.2
20210615103915 83 140 7.0 8.0 0.00 0.00 0.00 70 1014.2
20210615103816 83 127 4.0 8.0 0.00 0.00 0.00 71 1014.2
20210615103416 83 156 0.0 9.0 0.00 0.00 0.00 70 1014.1
20210615103317 83 156 0.0 9.0 0.00 0.00 0.00 70 1014.1
20210615102915 82 142 3.0 6.0 0.00 0.00 0.00 71 1014.1
20210615102816 83 146 5.0 6.0 0.00 0.00 0.00 70 1014.1
20210615102516 82 105 0.0 6.0 0.00 0.00 0.00 70 1014.1
20210615102215 82 151 3.0 0.0 0.00 0.00 0.00 70 1014.1
20210615102116 82 112 0.0 0.0 0.00 0.00 0.00 70 1014.1
20210615101716 82 112 0.0 5.0 0.00 0.00 0.00 70 1014.1
20210615101615 82 112 0.0 5.0 0.00 0.00 0.00 70 1014.1
20210615101315 82 132 0.0 4.0 0.00 0.00 0.00 70 1014.1
20210615101217 83 167 1.0 4.0 0.00 0.00 0.00 70 1014.1
20210615101016 82 135 5.0 4.0 0.00 0.00 0.00 70 1014.0
20210615100816 83 129 0.0 0.0 0.00 0.00 0.00 69 1014.0
20210615100617 82 129 0.0 0.0 0.00 0.00 0.00 70 1014.0
20210615100515 82 129 0.0 0.0 0.00 0.00 0.00 70 1014.0
20210615100315 83 129 0.0 0.0 0.00 0.00 0.00 70 1014.1
20210615100115 82 129 0.0 0.0 0.00 0.00 0.00 70 1014.0
20210615095916 82 129 0.0 2.0 0.00 0.00 0.00 69 1014.0
20210615095816 82 129 0.0 2.0 0.00 0.00 0.00 69 1014.0
20210615095716 82 129 0.0 2.0 0.00 0.00 0.00 69 1014.0
20210615095516 82 129 0.0 2.0 0.00 0.00 0.00 70 1014.0
20210615095416 82 102 0.0 5.0 0.00 0.00 0.00 69 1014.0
20210615095316 82 102 0.0 5.0 0.00 0.00 0.00 69 1013.9
20210615095216 82 102 0.0 5.0 0.00 0.00 0.00 69 1013.9
20210615095016 82 102 0.0 5.0 0.00 0.00 0.00 69 1013.9
20210615094916 82 144 0.0 7.0 0.00 0.00 0.00 70 1013.8
20210615094616 82 144 0.0 7.0 0.00 0.00 0.00 70 1013.8
20210615094516 82 144 0.0 7.0 0.00 0.00 0.00 70 1013.8
20210615094416 82 144 0.0 9.0 0.00 0.00 0.00 70 1013.9
20210615094316 82 144 0.0 9.0 0.00 0.00 0.00 70 1013.8
20210615094016 82 146 7.0 9.0 0.00 0.00 0.00 70 1013.8
20210615093816 82 144 1.0 5.0 0.00 0.00 0.00 70 1013.8
20210615093416 82 135 0.0 5.0 0.00 0.00 0.00 70 1013.8
20210615093316 82 154 0.0 5.0 0.00 0.00 0.00 70 1013.8
20210615093016 82 160 2.0 5.0 0.00 0.00 0.00 69 1013.8
20210615092716 83 150 4.0 0.0 0.00 0.00 0.00 69 1013.8
20210615092416 83 108 0.0 0.0 0.00 0.00 0.00 69 1013.8
20210615092216 82 108 0.0 0.0 0.00 0.00 0.00 69 1013.7
20210615092015 82 108 0.0 0.0 0.00 0.00 0.00 69 1013.7
20210615091816 82 108 0.0 0.0 0.00 0.00 0.00 69 1013.8
20210615091615 82 108 0.0 0.0 0.00 0.00 0.00 68 1013.7
20210615091416 82 108 0.0 0.0 0.00 0.00 0.00 69 1013.7
20210615091215 82 108 0.0 0.0 0.00 0.00 0.00 68 1013.7
20210615090917 82 108 0.0 0.0 0.00 0.00 0.00 68 1013.7
20210615090716 82 108 0.0 0.0 0.00 0.00 0.00 68 1013.8
20210615090615 82 108 0.0 0.0 0.00 0.00 0.00 68 1013.8
20210615090517 82 108 0.0 0.0 0.00 0.00 0.00 68 1013.7
20210615090217 82 108 0.0 0.0 0.00 0.00 0.00 68 1013.8
20210615085816 82 108 0.0 0.0 0.00 0.00 0.00 68 1013.8
20210615085716 82 108 0.0 0.0 0.00 0.00 0.00 68 1013.8
20210615085615 82 108 0.0 0.0 0.00 0.00 0.00 68 1013.7
20210615085516 82 108 0.0 0.0 0.00 0.00 0.00 68 1013.7
20210615085416 82 108 0.0 0.0 0.00 0.00 0.00 68 1013.8
20210615085316 82 108 0.0 0.0 0.00 0.00 0.00 68 1013.7
20210615085115 82 108 0.0 0.0 0.00 0.00 0.00 68 1013.8
20210615084916 82 108 0.0 0.0 0.00 0.00 0.00 68 1013.8
20210615084815 82 108 0.0 0.0 0.00 0.00 0.00 68 1013.8
20210615084616 82 108 0.0 0.0 0.00 0.00 0.00 68 1013.7
20210615084517 82 108 0.0 0.0 0.00 0.00 0.00 68 1013.8
20210615084415 82 108 0.0 0.0 0.00 0.00 0.00 68 1013.7
20210615084317 82 108 0.0 0.0 0.00 0.00 0.00 68 1013.7
20210615084116 83 108 0.0 0.0 0.00 0.00 0.00 68 1013.7
20210615084016 82 108 0.0 0.0 0.00 0.00 0.00 68 1013.7
20210615083816 82 108 0.0 0.0 0.00 0.00 0.00 68 1013.7
20210615083616 83 108 0.0 0.0 0.00 0.00 0.00 68 1013.7
20210615083515 82 108 0.0 0.0 0.00 0.00 0.00 68 1013.7
20210615083417 83 108 0.0 0.0 0.00 0.00 0.00 68 1013.7
20210615083316 82 108 0.0 0.0 0.00 0.00 0.00 68 1013.6
20210615083215 83 108 0.0 0.0 0.00 0.00 0.00 68 1013.6
20210615082816 82 108 0.0 0.0 0.00 0.00 0.00 68 1013.6
20210615082716 83 108 0.0 0.0 0.00 0.00 0.00 67 1013.6
20210615082615 82 108 0.0 0.0 0.00 0.00 0.00 67 1013.6
20210615082416 82 108 0.0 0.0 0.00 0.00 0.00 67 1013.6
20210615082317 82 108 0.0 0.0 0.00 0.00 0.00 67 1013.6
20210615082216 82 108 0.0 0.0 0.00 0.00 0.00 67 1013.6
20210615082115 82 108 0.0 0.0 0.00 0.00 0.00 67 1013.6
20210615081816 82 108 0.0 0.0 0.00 0.00 0.00 67 1013.6
20210615081716 82 108 0.0 0.0 0.00 0.00 0.00 67 1013.6
20210615081516 82 108 0.0 0.0 0.00 0.00 0.00 68 1013.6
20210615081216 83 108 0.0 7.0 0.00 0.00 0.00 67 1013.5
20210615080915 82 108 0.0 7.0 0.00 0.00 0.00 67 1013.5
20210615080817 82 108 0.0 7.0 0.00 0.00 0.00 67 1013.5
20210615080616 82 104 2.0 7.0 0.00 0.00 0.00 68 1013.6
20210615080516 83 139 6.0 7.0 0.00 0.00 0.00 68 1013.6
20210615080416 82 126 2.0 0.0 0.00 0.00 0.00 67 1013.6
20210615080317 82 90 0.0 0.0 0.00 0.00 0.00 67 1013.6
20210615080215 82 90 0.0 0.0 0.00 0.00 0.00 67 1013.6
20210615080116 82 90 0.0 0.0 0.00 0.00 0.00 67 1013.6